H1 CPF 2 NER 2022 2 28 9 059 01 glonass121 H2 1000702 9121 36401 2022 2 28 0 0 0 2022 3 3 23 45 0 900 1 1 0 0 0 1 H9 10 0 59638 0.00000 0 -16851580.582 -15300235.122 11396940.339 10 0 59638 900.00000 0 -15530872.485 -14410221.154 14115806.084 10 0 59638 1800.00000 0 -13854631.067 -13497248.999 16558871.008 10 0 59638 2700.00000 0 -11849444.391 -12620378.757 18678572.760 10 0 59638 3600.00000 0 -9554347.481 -11833814.086 20433748.370 10 0 59638 4500.00000 0 -7019406.326 -11184526.386 21790431.761 10 0 59638 5400.00000 0 -4303844.972 -10710209.584 22722502.171 10 0 59638 6300.00000 0 -1473795.969 -10437651.473 23212172.131 10 0 59638 7200.00000 0 1400230.051 -10381588.883 23250307.238 10 0 59638 8100.00000 0 4246048.995 -10544092.786 22836573.776 10 0 59638 9000.00000 0 6992569.072 -10914506.493 21979413.722 10 0 59638 9900.00000 0 9572502.974 -11469936.627 20695850.047 10 0 59638 10800.00000 0 11924915.137 -12176273.402 19011128.362 10 0 59638 11700.00000 0 13997500.402 -12989694.826 16958203.748 10 0 59638 12600.00000 0 15748502.192 -13858589.813 14577084.274 10 0 59638 13500.00000 0 17148193.815 -14725818.248 11914044.885 10 0 59638 14400.00000 0 18179864.847 -15531212.798 9020727.390 10 0 59638 15300.00000 0 18840274.891 -16214217.798 5953143.973 10 0 59638 16200.00000 0 19139558.971 -16716555.507 2770603.027 10 0 59638 17100.00000 0 19100591.024 -16984809.291 -465422.884 10 0 59638 18000.00000 0 18757833.815 -16972817.077 -3692466.247 10 0 59638 18900.00000 0 18155724.300 -16643776.339 -6848249.979 10 0 59638 19800.00000 0 17346662.041 -15971973.734 -9871867.887 10 0 59638 20700.00000 0 16388684.147 -14944067.758 -12704939.128 10 0 59638 21600.00000 0 15342922.774 -13559870.838 -15292716.310 10 0 59638 22500.00000 0 14270949.919 -11832597.368 -17585127.586 10 0 59638 23400.00000 0 13232118.860 -9788565.742 -19537734.035 10 0 59638 24300.00000 0 12281011.866 -7466364.344 -21112585.083 10 0 59638 25200.00000 0 11465099.732 -4915513.063 -22278956.111 10 0 59638 26100.00000 0 10822710.492 -2194672.564 -23013954.141 10 0 59638 27000.00000 0 10381392.473 630528.011 -23302979.451 10 0 59638 27900.00000 0 10156741.151 3489958.222 -23140033.116 10 0 59638 28800.00000 0 10151740.749 6311648.915 -22527862.825 10 0 59638 29700.00000 0 10356650.469 9024542.007 -21477941.980 10 0 59638 30600.00000 0 10749442.920 11561214.616 -20010279.941 10 0 59638 31500.00000 0 11296779.140 13860464.542 -18153064.379 10 0 59638 32400.00000 0 11955481.806 15869648.897 -15942140.057 10 0 59638 33300.00000 0 12674446.588 17546676.902 -13420331.800 10 0 59638 34200.00000 0 13396912.223 18861571.513 -10636623.070 10 0 59638 35100.00000 0 14062993.628 19797532.316 -7645205.009 10 0 59638 36000.00000 0 14612370.019 20351452.919 -4504414.255 10 0 59638 36900.00000 0 14987012.384 20533869.440 -1275580.905 10 0 59638 37800.00000 0 15133832.110 20368341.343 1978189.427 10 0 59638 38700.00000 0 15007135.302 19890290.791 5193273.554 10 0 59638 39600.00000 0 14570775.510 19145350.500 8306801.367 10 0 59638 40500.00000 0 13799910.531 18187291.891 11257911.529 10 0 59638 41400.00000 0 12682286.378 17075623.749 13988964.911 10 0 59638 42300.00000 0 11218992.355 15872965.983 16446689.477 10 0 59638 43200.00000 0 9424654.542 14642312.573 18583232.417 10 0 59638 44100.00000 0 7327059.570 13444302.063 20357097.793 10 0 59638 45000.00000 0 4966225.469 12334612.903 21733950.969 10 0 59638 45900.00000 0 2392960.059 11361594.644 22687274.642 10 0 59638 46800.00000 0 -333030.992 10564234.844 23198864.856 10 0 59638 47700.00000 0 -3145405.480 9970546.320 23259159.131 10 0 59638 48600.00000 0 -5973719.582 9596440.590 22867392.533 10 0 59638 49500.00000 0 -8746129.922 9445132.194 22031581.076 10 0 59638 50400.00000 0 -11392150.117 9507095.738 20768335.218 10 0 59638 51300.00000 0 -13845347.988 9760574.227 19102509.332 10 0 59638 52200.00000 0 -16045872.917 10172614.235 17066695.878 10 0 59638 53100.00000 0 -17942710.578 10700581.856 14700575.635 10 0 59638 54000.00000 0 -19495574.236 11294093.842 12050137.606 10 0 59638 54900.00000 0 -20676357.185 11897281.721 9166784.170 10 0 59638 55800.00000 0 -21470089.121 12451293.470 6106338.884 10 0 59638 56700.00000 0 -21875359.730 12896928.142 2927975.615 10 0 59638 57600.00000 0 -21904194.460 13177293.836 -306911.194 10 0 59638 58500.00000 0 -21581389.656 13240378.833 -3535874.476 10 0 59638 59400.00000 0 -20943336.047 13041429.544 -6696599.692 10 0 59638 60300.00000 0 -20036380.122 12545036.948 -9728086.074 10 0 59638 61200.00000 0 -18914791.466 11726845.075 -12571802.869 10 0 59638 62100.00000 0 -17638419.927 10574810.415 -15172800.164 10 0 59638 63000.00000 0 -16270138.927 9089959.140 -17480754.615 10 0 59638 63900.00000 0 -14873179.875 7286609.310 -19450931.330 10 0 59638 64800.00000 0 -13508467.194 5192046.618 -21045044.568 10 0 59638 65700.00000 0 -12232063.594 2845664.274 -22232001.394 10 0 59638 66600.00000 0 -11092831.206 297599.433 -22988514.038 10 0 59638 67500.00000 0 -10130405.748 -2393080.987 -23299568.769 10 0 59638 68400.00000 0 -9373568.667 -5160573.483 -23158741.141 10 0 59638 69300.00000 0 -8839086.393 -7934822.445 -22568349.858 10 0 59638 70200.00000 0 -8531067.003 -10644195.591 -21539444.142 10 0 59638 71100.00000 0 -8440863.525 -13218241.156 -20091622.273 10 0 59638 72000.00000 0 -8547530.438 -15590413.025 -18252682.167 10 0 59638 72900.00000 0 -8818816.645 -17700650.232 -16058108.083 10 0 59638 73800.00000 0 -9212655.210 -19497702.178 -13550401.056 10 0 59638 74700.00000 0 -9679088.464 -20941100.475 -10778264.284 10 0 59638 75600.00000 0 -10162547.731 -22002692.600 -7795658.168 10 0 59638 76500.00000 0 -10604390.765 -22667670.594 -4660743.094 10 0 59638 77400.00000 0 -10945587.996 -22935049.361 -1434731.239 10 0 59638 78300.00000 0 -11129441.348 -22817572.905 1819328.785 10 0 59638 79200.00000 0 -11104217.330 -22341051.746 5037808.630 10 0 59638 80100.00000 0 -10825579.402 -21543159.745 8157770.948 10 0 59638 81000.00000 0 -10258713.176 -20471742.452 11118226.544 10 0 59638 81900.00000 0 -9380051.454 -19182710.577 13861350.544 10 0 59638 82800.00000 0 -8178523.882 -17737610.305 16333631.253 10 0 59638 83700.00000 0 -6656276.957 -16200976.072 18486927.355 10 0 59638 84600.00000 0 -4828833.532 -14637580.318 20279411.619 10 0 59638 85500.00000 0 -2724685.536 -13109698.617 21676382.202 10 0 59639 0.00000 0 -384338.323 -11674507.009 22650926.165 10 0 59639 900.00000 0 2141153.004 -10381720.848 23184423.828 10 0 59639 1800.00000 0 4792089.057 -9271575.788 23266884.709 10 0 59639 2700.00000 0 7502396.393 -8373231.510 22897112.457 10 0 59639 3600.00000 0 10202163.555 -7703664.591 22082696.579 10 0 59639 4500.00000 0 12820337.852 -7267093.029 20839834.148 10 0 59639 5400.00000 0 15287470.660 -7054953.161 19192987.138 10 0 59639 6300.00000 0 17538398.071 -7046426.377 17174383.951 10 0 59639 7200.00000 0 19514747.091 -7209490.363 14823376.388 10 0 59639 8100.00000 0 21167165.597 -7502448.045 12185665.552 10 0 59639 9000.00000 0 22457186.105 -7875868.185 9312412.176 10 0 59639 9900.00000 0 23358648.728 -8274855.046 6259248.727 10 0 59639 10800.00000 0 23858627.090 -8641551.597 3085211.867 10 0 59639 11700.00000 0 23957821.219 -8917771.586 -148384.912 10 0 59639 12600.00000 0 23670403.165 -9047650.997 -3379117.900 10 0 59639 13500.00000 0 23023323.213 -8980208.941 -6544637.998 10 0 59639 14400.00000 0 22055106.314 -8671711.899 -9583852.648 10 0 59639 15300.00000 0 20814188.779 -8087743.363 -12438083.788 10 0 59639 16200.00000 0 19356863.794 -7204892.872 -15052181.356 10 0 59639 17100.00000 0 17744919.971 -6011993.715 -17375572.636 10 0 59639 18000.00000 0 16043069.574 -4510856.781 -19363228.629 10 0 59639 18900.00000 0 14316271.642 -2716468.199 -20976530.060 10 0 59639 19800.00000 0 12627059.626 -656639.923 -22184017.045 10 0 59639 20700.00000 0 11032983.403 1628875.334 -22962008.125 10 0 59639 21600.00000 0 9584271.235 4089771.765 -23295076.365 10 0 59639 22500.00000 0 8321808.816 6667026.939 -23176372.275 10 0 59639 23400.00000 0 7275520.196 9295114.415 -22607785.698 10 0 59639 24300.00000 0 6463219.318 11904503.836 -21599941.396 10 0 59639 25200.00000 0 5889981.936 14424347.062 -20172025.907 10 0 59639 26100.00000 0 5548066.405 16785240.004 -18351446.300 10 0 59639 27000.00000 0 5417388.877 18921945.544 -16173324.822 10 0 59639 27900.00000 0 5466535.002 20775963.307 -13679836.799 10 0 59639 28800.00000 0 5654267.127 22297837.216 -10919402.851 10 0 59639 29700.00000 0 5931464.180 23449101.970 -7945749.950 10 0 59639 30600.00000 0 6243412.153 24203784.227 -4816859.230 10 0 59639 31500.00000 0 6532347.140 24549392.737 -1593821.715 10 0 59639 32400.00000 0 6740141.124 24487353.701 1660374.371 10 0 59639 33300.00000 0 6811013.827 24032871.518 4882098.921 10 0 59639 34200.00000 0 6694152.319 23214220.341 8008350.693 10 0 59639 35100.00000 0 6346123.868 22071496.888 10978015.796 10 0 59639 36000.00000 0 5732976.531 20654888.665 13733086.539 10 0 59639 36900.00000 0 4831935.837 19022532.986 16219814.198 10 0 59639 37800.00000 0 3632623.931 17238059.875 18389771.261 10 0 59639 38700.00000 0 2137748.613 15367925.248 20200801.167 10 0 59639 39600.00000 0 363233.225 13478649.277 21617836.482 10 0 59639 40500.00000 0 -1662217.404 11634078.046 22613569.990 10 0 59639 41400.00000 0 -3898095.386 9892784.535 23168966.752 10 0 59639 42300.00000 0 -6293569.857 8305718.021 23273608.862 10 0 59639 43200.00000 0 -8789405.080 6914199.290 22925868.427 10 0 59639 44100.00000 0 -11320234.993 5748343.437 22132907.786 10 0 59639 45000.00000 0 -13817098.262 4825973.380 20910509.426 10 0 59639 45900.00000 0 -16210127.905 4152065.933 19282741.164 10 0 59639 46800.00000 0 -18431283.918 3718749.888 17281465.086 10 0 59639 47700.00000 0 -20417016.253 3505852.477 14945701.299 10 0 59639 48600.00000 0 -22110749.227 3481968.055 12320859.946 10 0 59639 49500.00000 0 -23465086.292 3606001.506 9457856.832 10 0 59639 50400.00000 0 -24443645.974 3829119.880 6412129.926 10 0 59639 51300.00000 0 -25022455.304 4097029.317 3242575.291 10 0 59639 52200.00000 0 -25190845.185 4352481.567 10422.158 10 0 59639 53100.00000 0 -24951812.512 4537905.432 -3221932.275 10 0 59639 54000.00000 0 -24321835.517 4598053.669 -6392107.305 10 0 59639 54900.00000 0 -23330150.825 4482555.604 -9438921.341 10 0 59639 55800.00000 0 -22017522.453 4148269.599 -12303551.538 10 0 59639 56700.00000 0 -20434553.347 3561337.772 -14930649.965 10 0 59639 57600.00000 0 -18639608.436 2698857.275 -17269396.520 10 0 59639 58500.00000 0 -16696433.883 1550097.911 -19274469.753 10 0 59639 59400.00000 0 -14671569.506 117214.030 -20906918.100 10 0 59639 60300.00000 0 -12631659.833 -1584581.128 -22134915.546 10 0 59639 61200.00000 0 -10640773.760 -3527388.732 -22934387.302 10 0 59639 62100.00000 0 -8757842.763 -5671533.232 -23289493.111 10 0 59639 63000.00000 0 -7034323.347 -7966972.883 -23192957.869 10 0 59639 63900.00000 0 -5512180.941 -10355157.018 -22646241.548 10 0 59639 64800.00000 0 -4222279.808 -12771256.436 -21659543.045 10 0 59639 65700.00000 0 -3183247.403 -15146677.066 -20251635.368 10 0 59639 66600.00000 0 -2400862.441 -17411754.166 -18449532.642 10 0 59639 67500.00000 0 -1867994.330 -19498515.802 -16287992.729 10 0 59639 68400.00000 0 -1565098.485 -21343400.058 -13808862.675 10 0 59639 69300.00000 0 -1461248.431 -22889811.096 -11060277.815 10 0 59639 70200.00000 0 -1515662.253 -24090404.944 -8095728.934 10 0 59639 71100.00000 0 -1679659.170 -24909006.469 -4973015.172 10 0 59639 72000.00000 0 -1898962.838 -25322074.046 -1753103.714 10 0 59639 72900.00000 0 -2116252.114 -25319647.697 1501080.176 10 0 59639 73800.00000 0 -2273848.681 -24905738.616 4725907.105 10 0 59639 74700.00000 0 -2316424.418 -24098142.399 7858314.262 10 0 59639 75600.00000 0 -2193610.238 -22927683.649 10837065.263 10 0 59639 76500.00000 0 -1862392.403 -21436924.595 13603971.645 10 0 59639 77400.00000 0 -1289191.774 -19678393.918 16105049.524 10 0 59639 78300.00000 0 -451535.692 -17712412.819 18291586.841 10 0 59639 79200.00000 0 660749.688 -15604612.558 20121099.085 10 0 59639 80100.00000 0 2044877.401 -13423250.562 21558154.305 10 0 59639 81000.00000 0 3684995.564 -11236440.083 22575051.676 10 0 59639 81900.00000 0 5552644.465 -9109411.041 23152341.553 10 0 59639 82800.00000 0 7607754.022 -7101917.414 23279178.527 10 0 59639 83700.00000 0 9800138.047 -5265899.059 22953502.850 10 0 59639 84600.00000 0 12071421.088 -3643494.010 22182049.073 10 0 59639 85500.00000 0 14357315.905 -2265481.808 20980184.183 10 0 59640 0.00000 0 16590155.548 -1150219.519 19371580.857 10 0 59640 900.00000 0 18701575.480 -303110.567 17387733.170 10 0 59640 1800.00000 0 20625231.514 283373.888 15067328.059 10 0 59640 2700.00000 0 22299445.619 629127.680 12455482.872 10 0 59640 3600.00000 0 23669668.199 765321.869 9602866.427 10 0 59640 4500.00000 0 24690657.663 732845.217 6564719.929 10 0 59640 5400.00000 0 25328288.744 580339.821 3399796.377 10 0 59640 6300.00000 0 25560916.529 361915.138 169238.115 10 0 59640 7200.00000 0 25380241.451 134636.274 -3064586.882 10 0 59640 8100.00000 0 24791640.768 -44108.713 -6239269.038 10 0 59640 9000.00000 0 23813953.677 -119253.076 -9293540.379 10 0 59640 9900.00000 0 22478729.213 -40597.621 -12168435.766 10 0 59640 10800.00000 0 20828967.720 234846.735 -14808411.676 10 0 59640 11700.00000 0 18917406.998 740817.420 -17162402.657 10 0 59640 12600.00000 0 16804422.629 1500144.984 -19184796.596 10 0 59640 13500.00000 0 14555627.530 2523554.020 -20836311.219 10 0 59640 14400.00000 0 12239268.084 3808971.850 -22084755.758 10 0 59640 15300.00000 0 9923522.756 5341376.122 -22905663.269 10 0 59640 16200.00000 0 7673813.404 7093190.776 -23282781.150 10 0 59640 17100.00000 0 5550239.527 9025217.506 -23208409.406 10 0 59640 18000.00000 0 3605241.386 11088067.703 -22683578.569 10 0 59640 18900.00000 0 1881589.237 13224039.000 -21718061.756 10 0 59640 19800.00000 0 410783.098 15369361.551 -20330218.134 10 0 59640 20700.00000 0 -788068.681 17456722.848 -18546668.138 10 0 59640 21600.00000 0 -1708843.493 19417967.293 -16401804.056 10 0 59640 22500.00000 0 -2358444.333 21186858.118 -13937143.003 10 0 59640 23400.00000 0 -2756281.962 22701785.260 -11200532.962 10 0 59640 24300.00000 0 -2933219.866 23908303.965 -8245226.047 10 0 59640 25200.00000 0 -2930025.890 24761395.003 -5128836.579 10 0 59640 26100.00000 0 -2795396.201 25227348.446 -1912204.812 10 0 59640 27000.00000 0 -2583636.460 25285188.714 1341810.235 10 0 59640 27900.00000 0 -2352100.572 24927578.173 4569583.242 10 0 59640 28800.00000 0 -2158498.447 24161159.200 7707993.195 10 0 59640 29700.00000 0 -2058190.307 23006319.257 10695684.473 10 0 59640 30600.00000 0 -2101585.697 21496388.887 13474290.930 10 0 59640 31500.00000 0 -2331760.654 19676307.473 15989596.372 10 0 59640 32400.00000 0 -2782396.601 17600814.823 18192606.774 10 0 59640 33300.00000 0 -3476130.013 15332247.020 20040511.968 10 0 59640 34200.00000 0 -4423383.478 12938031.816 21497517.437 10 0 59640 35100.00000 0 -5621727.457 10487991.017 22535530.364 10 0 59640 36000.00000 0 -7055798.763 8051564.710 23134687.608 10 0 59640 36900.00000 0 -8697777.682 5695074.554 23283717.039 10 0 59640 37800.00000 0 -10508401.849 3479140.445 22980127.346 10 0 59640 38700.00000 0 -12438472.460 1456357.306 22230225.048 10 0 59640 39600.00000 0 -14430787.993 -330673.151 21048960.830 10 0 59640 40500.00000 0 -16422423.297 -1850876.639 19459610.511 10 0 59640 41400.00000 0 -18347258.167 -3085746.140 17493298.793 10 0 59640 42300.00000 0 -20138649.778 -4029847.898 15188376.711 10 0 59640 43200.00000 0 -21732138.229 -4690776.422 12589665.907 10 0 59640 44100.00000 0 -23068073.624 -5088564.030 9747584.957 10 0 59640 45000.00000 0 -24094056.909 -5254572.641 6717174.814 10 0 59640 45900.00000 0 -24767094.761 -5229916.538 3557041.806 10 0 59640 46800.00000 0 -25055380.819 -5063483.586 328237.779 10 0 59640 47700.00000 0 -24939630.923 -4809638.416 -2906902.062 10 0 59640 48600.00000 0 -24413918.311 -4525703.686 -6085942.675 10 0 59640 49500.00000 0 -23485974.953 -4269324.245 -9147532.924 10 0 59640 50400.00000 0 -22176946.833 -4095823.567 -12032568.394 10 0 59640 51300.00000 0 -20520612.931 -4055662.018 -14685312.709 10 0 59640 52200.00000 0 -18562099.223 -4192102.375 -17054457.503 10 0 59640 53100.00000 0 -16356139.435 -4539179.720 -19094102.050 10 0 59640 54000.00000 0 -13964952.461 -5120060.658 -20764634.962 10 0 59640 54900.00000 0 -11455822.006 -5945861.328 -22033501.783 10 0 59640 55800.00000 0 -8898476.312 -7014975.237 -22875843.932 10 0 59640 56700.00000 0 -6362374.261 -8312941.515 -23274996.397 10 0 59640 57600.00000 0 -3914008.458 -9812862.279 -23222833.678 10 0 59640 58500.00000 0 -1614335.992 -11476355.267 -22719955.734 10 0 59640 59400.00000 0 483556.974 -13255005.746 -21775708.308 10 0 59640 60300.00000 0 2336459.492 -15092260.615 -20408034.743 10 0 59640 61200.00000 0 3912624.419 -16925688.472 -18643159.463 10 0 59640 62100.00000 0 5192873.576 -18689513.268 -16515106.583 10 0 59640 63000.00000 0 6171171.418 -20317316.521 -14065060.471 10 0 59640 63900.00000 0 6854641.226 -21744794.585 -11340578.766 10 0 59640 64800.00000 0 7263021.637 -22912454.040 -8394671.833 10 0 59640 65700.00000 0 7427585.391 -23768129.609 -5284766.053 10 0 59640 66600.00000 0 7389565.687 -24269215.748 -2071571.657 10 0 59640 67500.00000 0 7198157.441 -24384514.682 1182121.577 10 0 59640 68400.00000 0 6908179.763 -24095619.889 4412695.251 10 0 59640 69300.00000 0 6577501.155 -23397774.057 7556972.791 10 0 59640 70200.00000 0 6264339.749 -22300163.572 10553481.740 10 0 59640 71100.00000 0 6024556.438 -20825636.262 13343680.388 10 0 59640 72000.00000 0 5909058.940 -19009854.615 15873122.047 10 0 59640 72900.00000 0 5961429.689 -16899921.318 18092532.200 10 0 59640 73800.00000 0 6215880.125 -14552536.834 19958776.128 10 0 59640 74700.00000 0 6695619.144 -12031768.804 21435697.487 10 0 59640 75600.00000 0 7411704.897 -9406529.181 22494811.804 10 0 59640 76500.00000 0 8362427.759 -6747866.736 23115842.424 10 0 59640 77400.00000 0 9533249.000 -4126189.641 23287090.107 10 0 59640 78300.00000 0 10897295.868 -1608534.518 23005631.274 10 0 59640 79200.00000 0 12416390.132 744004.649 22277343.435 10 0 59640 80100.00000 0 14042564.846 2878582.120 21116759.751 10 0 59640 81000.00000 0 15720004.011 4752547.017 19546757.920 10 0 59640 81900.00000 0 17387322.736 6334953.190 17598091.390 10 0 59640 82800.00000 0 18980091.902 7607573.128 15308773.671 10 0 59640 83700.00000 0 20433501.918 8565377.647 12723328.798 10 0 59640 84600.00000 0 21685055.072 9216465.213 9891923.060 10 0 59640 85500.00000 0 22677175.315 9581447.203 6869394.969 10 0 59641 0.00000 0 23359628.186 9692317.647 3714202.152 10 0 59641 900.00000 0 23691652.072 9590856.696 487302.966 10 0 59641 1800.00000 0 23643712.820 9326635.684 -2749002.342 10 0 59641 2700.00000 0 23198811.311 8954707.815 -5932255.724 10 0 59641 3600.00000 0 22353289.546 8533080.597 -9001025.257 10 0 59641 4500.00000 0 21117102.553 8120075.053 -11896069.465 10 0 59641 5400.00000 0 19513544.407 7771681.089 -14561461.143 10 0 59641 6300.00000 0 17578438.738 7539018.495 -16945650.800 10 0 59641 7200.00000 0 15358825.627 7466008.864 -19002450.677 10 0 59641 8100.00000 0 12911197.119 7587355.310 -20691921.659 10 0 59641 9000.00000 0 10299351.812 7926914.671 -21981146.844 10 0 59641 9900.00000 0 7591954.680 8496531.193 -22844877.109 10 0 59641 10800.00000 0 4859900.479 9295382.274 -23266035.992 10 0 59641 11700.00000 0 2173587.569 10309866.182 -23236073.269 10 0 59641 12600.00000 0 -399786.596 11514039.587 -22755158.878 10 0 59641 13500.00000 0 -2798797.237 12870590.130 -21832211.440 10 0 59641 14400.00000 0 -4970124.776 14332306.889 -20484758.350 10 0 59641 15300.00000 0 -6870550.504 15843990.342 -18738627.492 10 0 59641 16200.00000 0 -8468531.033 17344724.333 -16627473.836 10 0 59641 17100.00000 0 -9745284.114 18770416.356 -14192147.597 10 0 59641 18000.00000 0 -10695338.376 20056499.898 -11479914.262 10 0 59641 18900.00000 0 -11326522.160 21140684.519 -8543540.271 10 0 59641 19800.00000 0 -11659390.546 21965636.119 -5440261.583 10 0 59641 20700.00000 0 -11726113.969 22481471.755 -2230655.681 10 0 59641 21600.00000 0 -11568875.605 22647960.605 1022559.805 10 0 59641 22500.00000 0 -11237846.423 22436334.862 4255776.418 10 0 59641 23400.00000 0 -10788825.712 21830631.024 7405765.091 10 0 59641 24300.00000 0 -10280649.844 20828502.537 10410939.600 10 0 59641 25200.00000 0 -9772482.337 19441467.931 13212585.663 10 0 59641 26100.00000 0 -9321103.414 17694583.475 15756028.969 10 0 59641 27000.00000 0 -8978316.909 15625554.650 17991717.217 10 0 59641 27900.00000 0 -8788586.804 13283325.106 19876193.633 10 0 59641 28800.00000 0 -8787004.934 10726204.415 21372942.282 10 0 59641 29700.00000 0 -8997676.347 8019615.309 22453088.988 10 0 59641 30600.00000 0 -9432590.097 5233556.799 23095945.178 10 0 59641 31500.00000 0 -10091021.773 2439890.960 23289385.716 10 0 59641 32400.00000 0 -10959490.974 -290432.472 23030055.519 10 0 59641 33300.00000 0 -12012273.192 -2890098.004 22323403.354 10 0 59641 34200.00000 0 -13212442.118 -5297980.337 21183544.597 10 0 59641 35100.00000 0 -14513396.410 -7461429.979 19632958.009 10 0 59641 36000.00000 0 -15860805.070 -9338196.227 17702024.401 10 0 59641 36900.00000 0 -17194888.725 -10897910.871 15428417.854 10 0 59641 37800.00000 0 -18452940.763 -12123074.659 12856362.410 10 0 59641 38700.00000 0 -19571983.038 -13009509.289 10035769.268 10 0 59641 39600.00000 0 -20491445.838 -13566259.639 7021271.383 10 0 59641 40500.00000 0 -21155761.392 -13814953.441 3871173.751 10 0 59641 41400.00000 0 -21516764.095 -13788647.580 646338.889 10 0 59641 42300.00000 0 -21535798.859 -13530210.771 -2590972.039 10 0 59641 43200.00000 0 -21185451.049 -13090311.073 -5778281.539 10 0 59641 44100.00000 0 -20450826.953 -12525092.372 -8854080.414 10 0 59641 45000.00000 0 -19330331.964 -11893636.380 -11758993.519 10 0 59641 45900.00000 0 -17835913.934 -11255315.245 -14436906.049 10 0 59641 46800.00000 0 -15992760.675 -10667144.184 -16836030.366 10 0 59641 47700.00000 0 -13838462.580 -10181243.604 -18909894.314 10 0 59641 48600.00000 0 -11421672.849 -9842515.874 -20618233.258 10 0 59641 49500.00000 0 -8800318.096 -9686633.432 -21927769.540 10 0 59641 50400.00000 0 -6039430.493 -9738422.612 -22812864.603 10 0 59641 51300.00000 0 -3208688.164 -10010711.788 -23256031.031 10 0 59641 52200.00000 0 -379762.821 -10503693.884 -23248293.764 10 0 59641 53100.00000 0 2376417.748 -11204832.433 -22789392.041 10 0 59641 54000.00000 0 4992380.573 -12089318.202 -21887816.166 10 0 59641 54900.00000 0 7406680.118 -13121060.562 -20560675.949 10 0 59641 55800.00000 0 9566225.587 -14254175.203 -18833400.691 10 0 59641 56700.00000 0 11428265.232 -15434908.569 -16739273.820 10 0 59641 57600.00000 0 12961943.344 -16603920.134 -14318808.682 10 0 59641 58500.00000 0 14149362.887 -17698827.509 -11618975.590 10 0 59641 59400.00000 0 14986107.262 -18656907.075 -8692293.786 10 0 59641 60300.00000 0 15481197.525 -19417835.007 -5595805.338 10 0 59641 61200.00000 0 15656485.645 -19926350.720 -2389951.388 10 0 59641 62100.00000 0 15545508.990 -20134727.264 862626.193 10 0 59641 63000.00000 0 15191855.033 -20004940.892 4098332.417 10 0 59641 63900.00000 0 14647106.909 -19510444.763 7253889.044 10 0 59641 64800.00000 0 13968459.201 -18637468.874 10267599.084 10 0 59641 65700.00000 0 13216107.908 -17385789.105 13080578.306 10 0 59641 66600.00000 0 12450528.379 -15768931.668 15637926.950 10 0 59641 67500.00000 0 11729759.664 -13813804.099 17889816.620 10 0 59641 68400.00000 0 11106812.886 -11559768.985 19792469.683 10 0 59641 69300.00000 0 10627315.198 -9057200.875 21309011.330 10 0 59641 70200.00000 0 10327489.798 -6365588.810 22410177.926 10 0 59641 71100.00000 0 10232557.228 -3551265.946 23074868.792 10 0 59641 72000.00000 0 10355624.238 -684863.077 23290532.307 10 0 59641 72900.00000 0 10697105.136 2161406.390 23053380.951 10 0 59641 73800.00000 0 11244697.482 4916516.393 22368433.502 10 0 59641 74700.00000 0 11973910.369 7513338.045 21249386.062 10 0 59641 75600.00000 0 12849120.382 9891178.042 19718316.746 10 0 59641 76500.00000 0 13825108.510 11998042.305 17805231.860 10 0 59641 77400.00000 0 14849011.633 13792533.622 15547464.036 10 0 59641 78300.00000 0 15862605.611 15245307.836 12988935.174 10 0 59641 79200.00000 0 16804823.814 16340031.669 10179299.132 10 0 59641 80100.00000 0 17614405.851 17073805.816 7172980.937 10 0 59641 81000.00000 0 18232566.429 17457038.982 4028130.801 10 0 59641 81900.00000 0 18605573.929 17512780.814 805512.333 10 0 59641 82800.00000 0 18687132.291 17275543.487 -2432654.602 10 0 59641 83700.00000 0 18440468.095 16789662.356 -5623875.500 10 0 59641 84600.00000 0 17840036.834 16107264.490 -8706566.192 10 0 59641 85500.00000 0 16872777.889 15285929.587 -11621219.992 99